User: anonymous   Login
Location: Unspecified
(0.0000°N, 0.0000°E)
Time: 09:45:42
(UTC+00:00)
Language:

ESTCUBE 1 - Orbit

View from above orbital plane
View from above orbital plane
View from above satellite
View from above satellite

Ground track
Ground track

The orbit data is extracted from the following two-line orbital elements,

1 39161U 13021C   18348.15074218  .00000169  00000-0  34758-4 0  9996
2 39161  98.0012  71.2070 0008867 195.6615 164.4325 14.72137181300925
Epoch (UTC): 14 December 2018 03:37:04
Eccentricity: 0.0008867
inclination: 98.0012°
perigee height: 648 km
apogee height: 660 km
right ascension of ascending node: 71.2070°
argument of perigee: 195.6615°
revolutions per day: 14.72137181
mean anomaly at epoch: 164.4325°
orbit number at epoch: 30092

The dashed part of the orbit path shows where the satellite is in the earth's shadow,  

DLR